This is the latest recevied weather packets stored in our database for station/object R6HABA-13. If no packets are shown the sender has not sent any weather packets the latest 10 day(s).
| Time | Temp. | Humidity | Pressure | Rain* | Wind** | Luminosity | Snow |
|---|---|---|---|---|---|---|---|
| 1777576503 | 2.22° C | 65% | 1022 hPa | - | 1.79 m/s, 350° | - | - |
| 1777572903 | 2.22° C | 65% | 1022 hPa | - | 1.79 m/s, 350° | - | - |
| 1777553103 | 6.67° C | 46% | 1021 hPa | - | 1.79 m/s, 334° | - | - |
| 1777552203 | 6.67° C | 46% | 1021 hPa | - | 1.79 m/s, 334° | - | - |
| 1777551303 | 6.67° C | 46% | 1022 hPa | - | 1.79 m/s, 334° | - | - |
| 1777550403 | 6.67° C | 46% | 1022 hPa | - | 1.79 m/s, 334° | - | - |
| 1777549503 | 6.67° C | 46% | 1022 hPa | - | 1.79 m/s, 334° | - | - |
| 1777545264 | -17.78° C | - | 1022 hPa | - | 2.24 m/s, 337° | - | - |
| 1777544103 | 5° C | 47% | 1022 hPa | - | 2.24 m/s, 337° | - | - |
| 1777543464 | -17.78° C | - | 1022 hPa | - | 2.24 m/s, 337° | - | - |
| 1777543089 | -17.78° C | - | 0 hPa | - | 0 m/s | - | - |
| 1777540503 | 3.89° C | 56% | 1023 hPa | - | 2.24 m/s, 350° | - | - |
| 1777536903 | 3.89° C | 56% | 1023 hPa | - | 2.24 m/s, 350° | - | - |
| 1777535757 | -17.78° C | - | 0 hPa | - | 0 m/s | - | - |
| 1777534202 | 3.89° C | 56% | 1023 hPa | - | 2.24 m/s, 350° | - | - |
| 1777533303 | 3.89° C | 56% | 1023 hPa | - | 2.24 m/s, 350° | - | - |
| 1777532403 | 3.89° C | 56% | 1023 hPa | - | 2.24 m/s, 350° | - | - |
| 1777530602 | 4.44° C | 56% | 1023 hPa | - | 2.68 m/s, 350° | - | - |
| 1777529833 | -17.78° C | 65% | 1023 hPa | - | 2.24 m/s, 348° | - | - |
| 1777529064 | -17.78° C | 69% | 1023 hPa | - | 1.79 m/s, 0° | - | - |
| 1777527003 | 2.22° C | 69% | 1023 hPa | - | 1.79 m/s, 343° | - | - |
| 1777526104 | 2.22° C | 69% | 1024 hPa | - | 1.79 m/s, 343° | - | - |
| 1777525203 | 2.22° C | 69% | 1024 hPa | - | 1.79 m/s, 343° | - | - |
| 1777524303 | 2.22° C | 69% | 1024 hPa | - | 1.79 m/s, 343° | - | - |
| 1777523402 | -1.11° C | 90% | 1024 hPa | - | 1.34 m/s, 351° | - | - |
* Rain since midnight (hover to see other rain measurements)
** Current wind speed in m/s (hover to see current wind gust speed)